Hourly Weather Barsnevo

Today, 19 April, Monday

Time Temperature Precipitation Wind Pressure Humidity
00:00 +5°C° 0 mm 3 mps 755 mmHg 81%
01:00 +5°C° 0 mm 3 mps 755 mmHg 83%
02:00 +5°C° 0 mm 3 mps 755 mmHg 85%
03:00 +5°C° 0 mm 4 mps 755 mmHg 87%
04:00 +4°C° 0 mm 4 mps 755 mmHg 87%
05:00 +4°C° 0 mm 4 mps 755 mmHg 87%
06:00 +4°C° 0 mm 4 mps 755 mmHg 88%
07:00 +4°C° 0 mm 4 mps 755 mmHg 82%
08:00 +5°C° 0 mm 4 mps 755 mmHg 77%
09:00 +6°C° 0 mm 5 mps 755 mmHg 72%
10:00 +7°C° 0 mm 5 mps 755 mmHg 65%
11:00 +8°C° 0 mm 5 mps 755 mmHg 59%
12:00 +9°C° 0 mm 5 mps 755 mmHg 53%
13:00 +9°C° 0 mm 5 mps 755 mmHg 54%
14:00 +9°C° 0 mm 5 mps 755 mmHg 55%
15:00 +9°C° 0 mm 5 mps 755 mmHg 56%
16:00 +9°C° 0 mm 5 mps 755 mmHg 55%
17:00 +8°C° 0 mm 5 mps 755 mmHg 55%
18:00 +7°C° 0 mm 5 mps 755 mmHg 55%
19:00 +7°C° 0 mm 5 mps 755 mmHg 55%
20:00 +6°C° 0 mm 5 mps 756 mmHg 54%
21:00 +5°C° 0 mm 5 mps 756 mmHg 54%
22:00 +5°C° 0 mm 5 mps 756 mmHg 57%
23:00 +3°C° 0 mm 5 mps 756 mmHg 61%

Tomorrow, 20 April, Tuesday

Time Temperature Precipitation Wind Pressure Humidity
00:00 +3°C° 0 mm 5 mps 756 mmHg 64%
01:00 +4°C° 0 mm 4 mps 756 mmHg 68%
02:00 +3°C° 0 mm 4 mps 756 mmHg 72%
03:00 +3°C° 0 mm 4 mps 755 mmHg 77%
04:00 +3°C° 0 mm 4 mps 755 mmHg 75%
05:00 +3°C° 0 mm 4 mps 755 mmHg 74%
06:00 +3°C° 0 mm 4 mps 755 mmHg 73%
07:00 +1°C° 0.1 mm 4 mps 755 mmHg 79%
08:00 +1°C° 0.1 mm 5 mps 755 mmHg 84%
09:00 +1°C° 0.1 mm 5 mps 755 mmHg 89%
10:00 +1°C° 0.5 mm 5 mps 755 mmHg 91%
11:00 0°C° 0.5 mm 5 mps 754 mmHg 93%
12:00 0°C° 0.5 mm 4 mps 754 mmHg 95%
13:00 0°C° 0.9 mm 5 mps 754 mmHg 95%
14:00 0°C° 0.9 mm 5 mps 753 mmHg 96%
15:00 0°C° 0.9 mm 5 mps 753 mmHg 96%
16:00 +1°C° 0.6 mm 5 mps 752 mmHg 93%
17:00 +2°C° 0.6 mm 6 mps 751 mmHg 91%
18:00 +2°C° 0.6 mm 6 mps 751 mmHg 89%
19:00 +2°C° 0.6 mm 6 mps 750 mmHg 89%
20:00 +3°C° 0.6 mm 7 mps 749 mmHg 89%
21:00 +3°C° 0.6 mm 7 mps 748 mmHg 89%
22:00 +2°C° 2.4 mm 7 mps 747 mmHg 91%
23:00 +1°C° 2.4 mm 8 mps 745 mmHg 92%

Day after tomorrow, 21 April, Wednesday

Time Temperature Precipitation Wind Pressure Humidity
00:00 +1°C° 2.4 mm 8 mps 744 mmHg 94%
01:00 +2°C° 0.8 mm 8 mps 743 mmHg 93%
02:00 +2°C° 0.8 mm 8 mps 742 mmHg 92%
03:00 +4°C° 0.8 mm 7 mps 741 mmHg 91%
04:00 +4°C° 0.9 mm 7 mps 741 mmHg 91%
05:00 +5°C° 0.9 mm 7 mps 740 mmHg 92%
06:00 +5°C° 0.9 mm 7 mps 739 mmHg 92%
07:00 +5°C° 0.4 mm 7 mps 739 mmHg 92%
08:00 +5°C° 0.4 mm 7 mps 739 mmHg 92%
09:00 +5°C° 0.4 mm 6 mps 739 mmHg 91%
10:00 +4°C° 0.1 mm 6 mps 740 mmHg 93%
11:00 +3°C° 0.1 mm 6 mps 740 mmHg 94%
12:00 0°C° 0.1 mm 7 mps 741 mmHg 95%
13:00 +2°C° 0 mm 6 mps 742 mmHg 93%
14:00 +2°C° 0 mm 6 mps 743 mmHg 91%
15:00 +2°C° 0 mm 6 mps 744 mmHg 90%
16:00 +2°C° 0 mm 5 mps 745 mmHg 88%
17:00 +2°C° 0 mm 5 mps 746 mmHg 86%
18:00 +4°C° 0 mm 4 mps 747 mmHg 84%
19:00 +4°C° 0 mm 4 mps 748 mmHg 85%
20:00 +4°C° 0 mm 3 mps 748 mmHg 85%
21:00 +4°C° 0 mm 3 mps 749 mmHg 86%
22:00 +4°C° 0 mm 3 mps 749 mmHg 86%
23:00 +4°C° 0 mm 3 mps 749 mmHg 86%

22 April, Thursday

Time Temperature Precipitation Wind Pressure Humidity
00:00 +4°C° 0 mm 3 mps 749 mmHg 87%
01:00 +4°C° 0.1 mm 3 mps 750 mmHg 90%
02:00 +3°C° 0.1 mm 3 mps 750 mmHg 92%
03:00 +3°C° 0.1 mm 3 mps 750 mmHg 95%
04:00 +3°C° 0 mm 3 mps 750 mmHg 95%
05:00 +4°C° 0 mm 2 mps 750 mmHg 94%
06:00 +3°C° 0 mm 2 mps 751 mmHg 94%
07:00 +3°C° 0 mm 3 mps 751 mmHg 89%
08:00 +5°C° 0 mm 3 mps 751 mmHg 84%
09:00 +7°C° 0 mm 3 mps 751 mmHg 80%
10:00 +6°C° 0.1 mm 4 mps 752 mmHg 79%
11:00 +7°C° 0.1 mm 4 mps 752 mmHg 79%
12:00 +8°C° 0.1 mm 4 mps 752 mmHg 78%
13:00 +10°C° 0.1 mm 4 mps 752 mmHg 74%
14:00 +11°C° 0.1 mm 4 mps 752 mmHg 71%
15:00 +12°C° 0.1 mm 4 mps 752 mmHg 67%
16:00 +12°C° 0.1 mm 4 mps 752 mmHg 69%
17:00 +12°C° 0.1 mm 3 mps 753 mmHg 70%
18:00 +12°C° 0.1 mm 3 mps 753 mmHg 71%
19:00 +11°C° 0 mm 3 mps 753 mmHg 76%
20:00 +9°C° 0 mm 2 mps 753 mmHg 81%
21:00 +8°C° 0 mm 2 mps 753 mmHg 85%
22:00 +8°C° 0 mm 2 mps 753 mmHg 84%
23:00 +8°C° 0 mm 2 mps 753 mmHg 83%

23 April, Friday

Time Temperature Precipitation Wind Pressure Humidity
00:00 +8°C° 0 mm 2 mps 753 mmHg 82%
01:00 +8°C° 0 mm 2 mps 753 mmHg 83%
02:00 +8°C° 0 mm 2 mps 753 mmHg 83%
03:00 +8°C° 0 mm 2 mps 753 mmHg 84%
04:00 +8°C° 0 mm 2 mps 753 mmHg 84%
05:00 +8°C° 0 mm 2 mps 753 mmHg 85%
06:00 +8°C° 0 mm 2 mps 753 mmHg 85%
07:00 +9°C° 0 mm 2 mps 753 mmHg 81%
08:00 +10°C° 0 mm 3 mps 753 mmHg 77%
09:00 +12°C° 0 mm 3 mps 753 mmHg 73%
10:00 +13°C° 0.3 mm 4 mps 753 mmHg 67%
11:00 +14°C° 0.3 mm 4 mps 753 mmHg 61%
12:00 +15°C° 0.3 mm 5 mps 753 mmHg 55%
13:00 +15°C° 0.5 mm 5 mps 752 mmHg 54%
14:00 +17°C° 0.5 mm 4 mps 752 mmHg 54%
15:00 +17°C° 0.5 mm 4 mps 751 mmHg 54%
16:00 +15°C° 0.5 mm 4 mps 751 mmHg 57%
17:00 +14°C° 0.5 mm 4 mps 751 mmHg 61%
18:00 +13°C° 0.5 mm 4 mps 751 mmHg 65%
19:00 +12°C° 0 mm 3 mps 751 mmHg 69%
20:00 +12°C° 0 mm 3 mps 750 mmHg 73%
21:00 +11°C° 0 mm 3 mps 750 mmHg 77%
22:00 +10°C° 0 mm 3 mps 750 mmHg 77%
23:00 +10°C° 0 mm 3 mps 749 mmHg 77%

24 April, Saturday

Time Temperature Precipitation Wind Pressure Humidity
00:00 +10°C° 0 mm 3 mps 749 mmHg 77%
01:00 +9°C° 0 mm 3 mps 748 mmHg 79%
02:00 +9°C° 0 mm 3 mps 748 mmHg 82%
03:00 +9°C° 0 mm 3 mps 747 mmHg 84%
04:00 +8°C° 0.2 mm 3 mps 747 mmHg 86%
05:00 +8°C° 0.2 mm 3 mps 747 mmHg 88%
06:00 +8°C° 0.2 mm 3 mps 747 mmHg 90%
07:00 +8°C° 0.4 mm 3 mps 746 mmHg 89%
08:00 +7°C° 0.4 mm 4 mps 746 mmHg 88%
09:00 +7°C° 0.4 mm 4 mps 746 mmHg 88%
10:00 +7°C° 0.6 mm 4 mps 747 mmHg 84%
11:00 +7°C° 0.6 mm 4 mps 747 mmHg 81%
12:00 +7°C° 0.6 mm 3 mps 747 mmHg 77%
13:00 +8°C° 0.1 mm 4 mps 747 mmHg 70%
14:00 +10°C° 0.1 mm 4 mps 747 mmHg 63%
15:00 +10°C° 0.1 mm 5 mps 747 mmHg 56%
16:00 +9°C° 0.1 mm 5 mps 747 mmHg 55%
17:00 +9°C° 0.1 mm 5 mps 747 mmHg 54%
18:00 +9°C° 0.1 mm 5 mps 748 mmHg 53%
19:00 +7°C° 0 mm 4 mps 748 mmHg 57%
20:00 +5°C° 0 mm 3 mps 748 mmHg 62%
21:00 +5°C° 0 mm 2 mps 749 mmHg 66%
22:00 +4°C° 0 mm 2 mps 749 mmHg 70%
23:00 +4°C° 0 mm 2 mps 749 mmHg 73%
Show more